Location: Chisholm
(54.9102°N, 114.1701°W)
Time: 18:43:48
(UTC+00:00)

ISS - Pass Details

Date: 05 December 2021
Orbit: 413 x 422 km, 51.6° (Epoch: 28 January)

Event Time Altitude Azimuth Distance (km) Brightness Sun altitude
Rises 02:07:01 0° 274° (W) 2,387 1.5 -23.8°
Reaches altitude 10° 02:09:56 10° 247° (WSW) 1,514 0.0 -24.2°
Maximum altitude 02:11:41 14° 216° (SW) 1,313 -0.8 -24.5°
Enters shadow 02:12:45 12° 196° (SSW) 1,388 -0.9 -24.6°
